Immokalee Regional Airport [I, FL

9:08 PM EDT on August 20, 2017 (GMT -0400)
Immokalee

Weather History for KIMM - August, 2014

Change the Weather History Date:

Wednesday, August 13, 2014

  Actual Average (KRSW) Record (KRSW)
Temperature  
Mean Temperature 86 °F -  
Max Temperature 98 °F 90 °F 97 °F (1942)
Min Temperature 73 °F 74 °F 70 °F (1931)
Cooling Degree Days 20    
Growing Degree Days 36 (Base 50)    
Moisture  
Dew Point 80 °F    
Average Humidity 81    
Maximum Humidity 100    
Minimum Humidity 44    
Precipitation  
Precipitation 0.00 in - - ()
Sea Level Pressure  
Sea Level Pressure 30.03 in    
Wind  
Wind Speed 2 mph (SW)    
Max Wind Speed 13 mph    
Max Gust Speed 21 mph    
Visibility 8 miles    
Events      
Averages and records for this station are not official NWS values.
T = Trace of Precipitation, MM = Missing Value Source: NWS Daily Summary

Daily Weather History Graph

Daily Weather History Graph

Search for Another Location

Airport or City:

Trip Planner

Search our weather history database for the weather conditions in past years. The results will help you decide how hot, cold, wet, or windy it might be!

Date:

Astronomy

Aug. 13, 2014 Rise Set
Actual Time 6:56 AM EDT 8:03 PM EDT
Civil Twilight 6:32 AM EDT 8:27 PM EDT
Nautical Twilight 6:03 AM EDT 8:56 PM EDT
Astronomical Twilight 5:34 AM EDT 9:26 PM EDT
Moon 10:15 PM EDT (8/13) 9:59 AM EDT (8/13)
Length of Visible Light 13h 55m
Length of Day
13h 06m
Waning Gibbous, 88% of the Moon is Illuminated
Aug 13
Waning Gibbous
Aug 17
Last Quarter
Aug 25
New
Sep 2
First Quarter
Sep 8
Full

Hourly Weather History & Observations

Time (EDT) Temp. Heat Index Dew Point Humidity Pressure Visibility Wind Dir Wind Speed Gust Speed Precip Events Conditions
12:15 AM 75.2 °F - - N/A% 30.04 in 9.0 mi Calm Calm - 0.00 in   Clear
12:35 AM 77.0 °F - - N/A% 30.04 in 9.0 mi Calm Calm - 0.00 in   Clear
12:55 AM 77.0 °F - - N/A% 30.04 in 9.0 mi Calm Calm - 0.00 in   Clear
1:15 AM 77.0 °F - - N/A% 30.04 in 8.0 mi Calm Calm - 0.00 in   Clear
1:35 AM 75.2 °F - - N/A% 30.03 in 8.0 mi Calm Calm - 0.00 in   Clear
1:55 AM 77.0 °F - - N/A% 30.02 in 8.0 mi Calm Calm - 0.00 in   Clear
2:15 AM 77.0 °F - - N/A% 30.03 in 8.0 mi Calm Calm - 0.00 in   Clear
2:35 AM 77.0 °F - - N/A% 30.02 in 9.0 mi Calm Calm - 0.00 in   Clear
2:55 AM 77.0 °F - - N/A% 30.02 in 8.0 mi Calm Calm - 0.00 in   Clear
3:15 AM 75.2 °F - - N/A% 30.02 in 9.0 mi Calm Calm - 0.00 in   Clear
3:35 AM 75.2 °F - - N/A% 30.01 in 8.0 mi Calm Calm - 0.00 in   Clear
3:55 AM 75.2 °F - - N/A% 30.01 in 9.0 mi Calm Calm - 0.00 in   Clear
4:15 AM 73.4 °F - - N/A% 30.01 in 5.0 mi Calm Calm - 0.00 in   Clear
4:35 AM 75.2 °F - - N/A% 30.01 in 7.0 mi Calm Calm - 0.00 in   Clear
5:15 AM 75.2 °F - - N/A% 30.01 in 9.0 mi Calm Calm - 0.00 in   Scattered Clouds
5:35 AM 75.2 °F - - N/A% 30.01 in 8.0 mi Calm Calm - 0.00 in   Scattered Clouds
5:55 AM 75.2 °F - - N/A% 30.01 in 8.0 mi Calm Calm - 0.00 in   Partly Cloudy
6:15 AM 75.2 °F - - N/A% 30.01 in 9.0 mi Calm Calm - 0.00 in   Clear
6:35 AM 75.2 °F - - N/A% 30.02 in 9.0 mi Calm Calm - 0.00 in   Clear
6:55 AM 75.2 °F - - N/A% 30.02 in 9.0 mi Calm Calm - 0.00 in   Clear
7:15 AM 75.2 °F - - N/A% 30.02 in 8.0 mi Calm Calm - 0.00 in   Clear
7:35 AM 77.0 °F - - N/A% 30.03 in 7.0 mi Calm Calm - 0.00 in   Clear
7:55 AM 78.8 °F - - N/A% 30.03 in 6.0 mi Calm Calm - 0.00 in   Clear
8:35 AM 82.4 °F 96.1 °F 82.4 °F 100% 30.04 in 6.0 mi Calm Calm - 0.00 in   Clear
8:55 AM 84.2 °F 103.5 °F 84.2 °F 100% 30.04 in 8.0 mi Calm Calm - 0.00 in   Clear
9:55 AM 87.8 °F 111.7 °F 84.2 °F 89% 30.05 in 7.0 mi SSE 4.6 mph - 0.00 in   Clear
10:35 AM 91.4 °F 111.0 °F 80.6 °F 71% 30.05 in 7.0 mi SSW 5.8 mph - 0.00 in   Clear
11:15 AM 93.2 °F 113.6 °F 80.6 °F 67% 30.05 in 7.0 mi SW 6.9 mph - 0.00 in   Partly Cloudy
11:35 AM 95.0 °F 109.7 °F 77.0 °F 56% 30.05 in 7.0 mi SSW 5.8 mph - 0.00 in   Partly Cloudy
11:55 AM 95.0 °F 109.7 °F 77.0 °F 56% 30.05 in 8.0 mi SSW 3.5 mph - 0.00 in   Partly Cloudy
12:15 PM 98.6 °F 111.7 °F 75.2 °F 47% 30.05 in 7.0 mi SSW 5.8 mph - 0.00 in   Scattered Clouds
12:35 PM 98.6 °F 109.2 °F 73.4 °F 44% 30.04 in 7.0 mi South 3.5 mph - 0.00 in   Scattered Clouds
12:55 PM 96.8 °F 109.6 °F 75.2 °F 50% 30.03 in 8.0 mi South 8.1 mph - 0.00 in   Scattered Clouds
1:15 PM 91.4 °F 102.5 °F 75.2 °F 59% 30.04 in 8.0 mi SSW 5.8 mph - 0.00 in   Mostly Cloudy
1:35 PM 87.8 °F 104.9 °F 80.6 °F 79% 30.04 in 8.0 mi West 12.7 mph 18.4 mph 0.00 in   Overcast
1:55 PM 82.4 °F 94.0 °F 80.6 °F 94% 30.05 in 1.5 mi West 9.2 mph - 0.00 in   Overcast
2:35 PM 80.6 °F 89.3 °F 80.6 °F 100% 30.03 in 7.0 mi Calm Calm - 0.00 in   Scattered Clouds
2:55 PM 78.8 °F - 78.8 °F 100% 30.05 in 0.2 mi South 11.5 mph 20.7 mph 0.00 in   Overcast
3:15 PM 75.2 °F - - N/A% 30.02 in 3.0 mi ESE 9.2 mph - 0.00 in   Overcast
3:35 PM 78.8 °F - - N/A% 30.02 in 9.0 mi Calm Calm - 0.00 in   Mostly Cloudy
4:15 PM 78.8 °F - - N/A% 30.02 in 6.0 mi SW 4.6 mph - 0.00 in   Scattered Clouds
4:35 PM 78.8 °F - 78.8 °F 100% 30.02 in 5.0 mi WSW 5.8 mph - 0.00 in   Partly Cloudy
4:55 PM 80.6 °F 89.3 °F 80.6 °F 100% 30.01 in 8.0 mi NW 6.9 mph - 0.00 in   Partly Cloudy
5:15 PM 87.8 °F 108.2 °F 82.4 °F 84% 30.01 in 9.0 mi NW 6.9 mph - 0.00 in   Clear
5:35 PM 80.6 °F 89.3 °F 80.6 °F 100% 30.01 in 8.0 mi West 5.8 mph - 0.00 in   Clear
5:55 PM 80.6 °F 89.3 °F 80.6 °F 100% 30.01 in 8.0 mi West 6.9 mph - 0.00 in   Clear
6:15 PM 80.6 °F 88.1 °F 78.8 °F 94% 30.00 in 9.0 mi WNW 4.6 mph - 0.00 in   Clear
6:35 PM 86.0 °F 101.9 °F 80.6 °F 84% 30.00 in 8.0 mi Calm Calm - 0.00 in   Clear
6:55 PM 89.6 °F 104.7 °F 78.8 °F 70% 30.00 in 8.0 mi West 3.5 mph - 0.00 in   Clear
7:15 PM 89.6 °F 104.7 °F 78.8 °F 70% 30.00 in 8.0 mi Calm Calm - 0.00 in   Clear
7:35 PM 87.8 °F 104.9 °F 80.6 °F 79% 30.01 in 10.0 mi Calm Calm - 0.00 in   Clear
7:55 PM 86.0 °F 104.7 °F 82.4 °F 89% 30.02 in 8.0 mi Calm Calm - 0.00 in   Clear
8:15 PM 82.4 °F 96.1 °F 82.4 °F 100% 30.02 in 8.0 mi Calm Calm - 0.00 in   Clear
9:15 PM 80.6 °F - - N/A% 30.02 in 9.0 mi Calm Calm - 0.00 in   Clear
11:15 PM 77.0 °F - - N/A% 30.05 in 9.0 mi Calm Calm - 0.00 in   Clear